Regional Weather Roundup
Issued by NWS

Home | Current Version | Previous Version | Text Only | Print | Product List | Glossary Off
Versions: 1 2 3 4 5 6 7 8 9 10 11 12 13 14 15 16 17 18 19 20 21 22 23 24 25 26 27 28 29 30 31 32 33 34 35 36 37 38 39 40 41 42 43 44 45 46 47 48 49 50

000
ASUS44 KMEG 181100
RWRTN
TENNESSEE HOURLY STATE WEATHER ROUNDUP
NATIONAL WEATHER SERVICE MEMPHIS TN
600 AM CDT THU SEP 18 2014

TNZ002-004-019-021-049-052-054-088>092-181200-
WEST TENNESSEE

CITY           SKY/WX    TMP DP  RH WIND       PRES   REMARKS
MEMPHIS INTL   CLOUDY    67  63  87 E6        29.92F
NWS MEMPHIS      N/A     65 N/A N/A MISG        N/A
JACKSON        CLOUDY    64  61  90 NE5       29.96R
DYERSBURG      CLOUDY    63  52  67 E3        29.97R
UNION CITY     CLOUDY    61  57  88 CALM      29.96S
PARIS          PTCLDY    55  54  94 CALM      29.98S
SAVANNAH       MOCLDY    63  63 100 CALM      29.96S
$$

TNZ008-025-027-028-033-062-065-066-181200-
NORTH MIDDLE TENNESSEE

CITY           SKY/WX    TMP DP  RH WIND       PRES   REMARKS
NASHVILLE      MOCLDY    61  57  87 CALM      29.99R
CLARKSVILLE    MOCLDY    59  57  93 CALM      29.98S FOG
COOKEVILLE       N/A     54  54 100 CALM      29.99R VSB 1
CROSSVILLE     CLEAR     58  53  84 CALM      30.02S
$$

TNZ061-075-076-078-094-096-097-181200-
SOUTH MIDDLE TENNESSEE

CITY           SKY/WX    TMP DP  RH WIND       PRES   REMARKS
SHELBYVILLE    MOCLDY    57  57 100 CALM      30.00R
$$

TNZ017-018-042-046-047-181200-
NORTHEAST TENNESSEE

CITY           SKY/WX    TMP DP  RH WIND       PRES   REMARKS
TRI CITIES     FOG       54  51  90 CALM      30.02S VSB 1/2
ELIZABETHTON   MOSUNNY   54  52  94 CALM      30.03R
$$

TNZ012-013-036-069-073-074-181200-
CENTRAL EAST TENNESSEE

CITY           SKY/WX    TMP DP  RH WIND       PRES   REMARKS
KNOXVILLE      NOT AVBL
OAK RIDGE      CLOUDY    61  58  90 CALM      30.01S
GATLINBURG     CLOUDY    59  57  94 E3        30.00S
$$

TNZ083-085-099-181200-
SOUTHEAST TENNESSEE

CITY           SKY/WX    TMP DP  RH WIND       PRES   REMARKS
CHATTANOOGA    PTCLDY    61  57  87 CALM      29.99R
$$

SKY/WX REPORTED AS FAIR MEANS FEW OR NO CLOUDS BELOW
12 THOUSAND FEET.




USA.gov is the U.S. government's official web portal to all federal, state and local government web resources and services.